Time,TemperatureF,DewpointF,PressureIn,WindDirection,WindDirectionDegrees,WindSpeedMPH,WindSpeedGustMPH,Humidity,HourlyPrecipIn,Conditions,Clouds,dailyrainin,SoftwareType,DateUTC
2013-11-08 00:00:00,46.4,38.9,29.95,WNW,289,0.0,0.0,75,0.00,,---,0.07,VWS V14.01,2013-11-08 05:00:00,
2013-11-08 00:10:00,46.1,39.0,29.95,West,261,0.0,1.0,76,0.00,,---,0.00,VWS V14.01,2013-11-08 05:10:00,
2013-11-08 00:20:00,45.7,38.9,29.95,NW,306,0.0,0.0,77,0.00,,---,0.00,VWS V14.01,2013-11-08 05:20:00,
2013-11-08 00:30:00,45.5,39.7,29.95,WNW,302,0.0,5.0,80,0.00,,---,0.00,VWS V14.01,2013-11-08 05:30:00,
2013-11-08 00:40:00,45.4,39.3,29.95,West,268,0.0,0.0,79,0.00,,---,0.00,VWS V14.01,2013-11-08 05:40:00,
2013-11-08 00:50:00,45.5,39.7,29.96,WSW,258,0.0,7.0,80,0.00,,---,0.00,VWS V14.01,2013-11-08 05:50:00,
2013-11-08 01:00:00,45.8,38.3,29.96,WNW,282,0.0,6.0,75,0.00,,---,0.00,VWS V14.01,2013-11-08 06:00:00,
2013-11-08 01:10:00,45.8,38.3,29.96,NW,305,0.0,7.0,75,0.00,,---,0.00,VWS V14.01,2013-11-08 06:10:00,
2013-11-08 01:20:00,45.8,39.0,29.97,WNW,298,0.0,1.0,77,0.00,,---,0.00,VWS V14.01,2013-11-08 06:20:00,
2013-11-08 01:30:00,45.7,38.6,29.98,WSW,248,2.0,3.0,76,0.00,,---,0.00,VWS V14.01,2013-11-08 06:30:00,
2013-11-08 01:40:00,45.4,38.6,29.98,NW,326,0.0,3.0,77,0.00,,---,0.00,VWS V14.01,2013-11-08 06:40:00,
2013-11-08 01:50:00,45.1,38.7,29.98,West,261,0.0,3.0,78,0.00,,---,0.00,VWS V14.01,2013-11-08 06:50:00,
2013-11-08 02:00:00,44.9,38.5,29.99,WSW,253,0.0,4.0,78,0.00,,---,0.00,VWS V14.01,2013-11-08 07:00:00,
2013-11-08 02:10:00,44.6,38.5,29.99,WNW,284,0.0,3.0,79,0.00,,---,0.00,VWS V14.01,2013-11-08 07:10:00,
2013-11-08 02:20:00,44.5,37.4,30.00,West,272,0.0,8.0,76,0.00,,---,0.00,VWS V14.01,2013-11-08 07:20:00,
2013-11-08 02:30:00,44.5,37.4,30.00,WNW,285,0.0,5.0,76,0.00,,---,0.00,VWS V14.01,2013-11-08 07:30:00,
2013-11-08 02:40:00,44.3,37.6,30.00,WNW,298,0.0,6.0,77,0.00,,---,0.00,VWS V14.01,2013-11-08 07:40:00,
2013-11-08 02:50:00,44.1,37.4,30.01,WNW,301,0.0,2.0,77,0.00,,---,0.00,VWS V14.01,2013-11-08 07:50:00,
2013-11-08 03:00:00,43.9,36.8,30.02,NNW,340,0.0,5.0,76,0.00,,---,0.00,VWS V14.01,2013-11-08 08:00:00,
2013-11-08 03:10:00,43.6,36.5,30.02,South,189,0.0,4.0,76,0.00,,---,0.00,VWS V14.01,2013-11-08 08:10:00,
2013-11-08 03:20:00,43.5,36.5,30.02,WSW,256,0.0,6.0,76,0.00,,---,0.00,VWS V14.01,2013-11-08 08:20:00,
2013-11-08 03:30:00,43.1,36.1,30.03,NW,319,0.0,1.0,76,0.00,,---,0.00,VWS V14.01,2013-11-08 08:30:00,
2013-11-08 03:40:00,42.9,35.9,30.03,West,275,0.0,1.0,76,0.00,,---,0.00,VWS V14.01,2013-11-08 08:40:00,
2013-11-08 03:50:00,42.8,35.8,30.03,WSW,244,0.0,3.0,76,0.00,,---,0.00,VWS V14.01,2013-11-08 08:50:00,
2013-11-08 04:00:00,42.6,34.9,30.04,SW,236,0.0,2.0,74,0.00,,---,0.00,VWS V14.01,2013-11-08 09:00:00,
2013-11-08 04:10:00,42.5,34.8,30.04,WSW,244,0.0,0.0,74,0.00,,---,0.00,VWS V14.01,2013-11-08 09:10:00,
2013-11-08 04:20:00,42.5,34.8,30.04,West,261,0.0,3.0,74,0.00,,---,0.00,VWS V14.01,2013-11-08 09:20:00,
2013-11-08 04:30:00,42.2,34.9,30.05,NW,319,0.0,2.0,75,0.00,,---,0.00,VWS V14.01,2013-11-08 09:30:00,
2013-11-08 04:40:00,41.9,34.9,30.05,WNW,296,0.0,1.0,76,0.00,,---,0.00,VWS V14.01,2013-11-08 09:40:00,
2013-11-08 04:50:00,41.6,34.6,30.05,WNW,296,0.0,0.0,76,0.00,,---,0.00,VWS V14.01,2013-11-08 09:50:00,
2013-11-08 05:00:00,41.3,34.7,30.06,WNW,291,0.0,3.0,77,0.00,,---,0.00,VWS V14.01,2013-11-08 10:00:00,
2013-11-08 05:10:00,40.9,34.9,30.06,WNW,291,0.0,0.0,79,0.00,,---,0.00,VWS V14.01,2013-11-08 10:10:00,
2013-11-08 05:20:00,40.6,34.9,30.06,WNW,291,0.0,0.0,80,0.00,,---,0.00,VWS V14.01,2013-11-08 10:20:00,
2013-11-08 05:30:00,40.2,34.5,30.07,WNW,291,0.0,0.0,80,0.00,,---,0.00,VWS V14.01,2013-11-08 10:30:00,
2013-11-08 05:40:00,39.9,34.2,30.07,WNW,291,0.0,0.0,80,0.00,,---,0.00,VWS V14.01,2013-11-08 10:40:00,
2013-11-08 05:50:00,39.6,34.3,30.07,WNW,291,0.0,0.0,81,0.00,,---,0.00,VWS V14.01,2013-11-08 10:50:00,
2013-11-08 06:00:00,39.3,34.3,30.08,WNW,291,0.0,0.0,82,0.00,,---,0.00,VWS V14.01,2013-11-08 11:00:00,
2013-11-08 06:10:00,39.1,34.1,30.08,WNW,291,0.0,0.0,82,0.00,,---,0.00,VWS V14.01,2013-11-08 11:10:00,
2013-11-08 06:20:00,38.6,34.2,30.08,WNW,291,0.0,0.0,84,0.00,,---,0.00,VWS V14.01,2013-11-08 11:20:00,
2013-11-08 06:30:00,38.0,34.8,30.08,WNW,291,0.0,0.0,88,0.00,,---,0.00,VWS V14.01,2013-11-08 11:30:00,
2013-11-08 06:40:00,37.5,34.3,30.08,WNW,291,0.0,0.0,88,0.00,,---,0.00,VWS V14.01,2013-11-08 11:40:00,
2013-11-08 06:50:00,37.2,34.3,30.08,WNW,291,0.0,0.0,89,0.00,,---,0.00,VWS V14.01,2013-11-08 11:50:00,
2013-11-08 07:00:00,37.3,34.6,30.09,WNW,291,0.0,0.0,90,0.00,,---,0.00,VWS V14.01,2013-11-08 12:00:00,
2013-11-08 07:10:00,37.2,34.8,30.09,WNW,291,0.0,0.0,91,0.00,,---,0.00,VWS V14.01,2013-11-08 12:10:00,
2013-11-08 07:20:00,37.0,34.6,30.09,WNW,291,0.0,0.0,91,0.00,,---,0.00,VWS V14.01,2013-11-08 12:20:00,
2013-11-08 07:30:00,37.0,34.9,30.09,WNW,291,0.0,0.0,92,0.00,,---,0.00,VWS V14.01,2013-11-08 12:30:00,
2013-11-08 07:40:00,37.2,34.3,30.09,WNW,291,0.0,0.0,89,0.00,,---,0.00,VWS V14.01,2013-11-08 12:40:00,
2013-11-08 07:50:00,38.0,34.8,30.10,NNW,329,0.0,3.0,88,0.00,,---,0.00,VWS V14.01,2013-11-08 12:50:00,
2013-11-08 08:00:00,39.1,34.7,30.11,NNW,329,0.0,0.0,84,0.00,,---,0.00,VWS V14.01,2013-11-08 13:00:00,
2013-11-08 08:10:00,40.6,34.9,30.11,NW,304,0.0,2.0,80,0.00,,---,0.00,VWS V14.01,2013-11-08 13:10:00,
2013-11-08 08:20:00,42.8,35.4,30.12,West,268,0.0,3.0,75,0.00,,---,0.00,VWS V14.01,2013-11-08 13:20:00,
2013-11-08 08:30:00,44.6,36.2,30.13,West,275,0.0,0.0,72,0.00,,---,0.00,VWS V14.01,2013-11-08 13:30:00,
2013-11-08 08:40:00,46.1,35.4,30.13,SW,234,0.0,0.0,66,0.00,,---,0.00,VWS V14.01,2013-11-08 13:40:00,
2013-11-08 08:50:00,47.3,35.8,30.13,West,275,0.0,5.0,64,0.00,,---,0.00,VWS V14.01,2013-11-08 13:50:00,
2013-11-08 09:00:00,48.2,36.2,30.13,WNW,285,0.0,0.0,63,0.00,,---,0.00,VWS V14.01,2013-11-08 14:00:00,
2013-11-08 09:10:00,48.8,36.8,30.13,West,280,0.0,6.0,63,0.00,,---,0.00,VWS V14.01,2013-11-08 14:10:00,
2013-11-08 09:20:00,49.4,36.9,30.13,SW,226,0.0,7.0,62,0.00,,---,0.00,VWS V14.01,2013-11-08 14:20:00,
2013-11-08 09:30:00,49.6,37.1,30.13,NW,322,0.0,7.0,62,0.00,,---,0.00,VWS V14.01,2013-11-08 14:30:00,
2013-11-08 09:40:00,50.4,37.5,30.13,West,260,0.0,2.0,61,0.00,,---,0.00,VWS V14.01,2013-11-08 14:40:00,
2013-11-08 09:50:00,50.7,36.9,30.13,WNW,299,0.0,3.0,59,0.00,,---,0.00,VWS V14.01,2013-11-08 14:50:00,
2013-11-08 10:00:00,50.8,36.6,30.13,SW,219,0.0,5.0,58,0.00,,---,0.00,VWS V14.01,2013-11-08 15:00:00,
2013-11-08 10:10:00,51.1,36.8,30.13,WNW,299,0.0,6.0,58,0.00,,---,0.00,VWS V14.01,2013-11-08 15:10:00,
2013-11-08 10:20:00,51.6,35.5,30.12,NE,44,0.0,2.0,54,0.00,,---,0.00,VWS V14.01,2013-11-08 15:20:00,
2013-11-08 10:30:00,51.6,36.4,30.12,West,268,3.0,6.0,56,0.00,,---,0.00,VWS V14.01,2013-11-08 15:30:00,
2013-11-08 10:40:00,52.0,35.9,30.12,NNW,336,2.0,6.0,54,0.00,,---,0.00,VWS V14.01,2013-11-08 15:40:00,
2013-11-08 10:50:00,52.2,36.5,30.12,NW,308,2.0,10.0,55,0.00,,---,0.00,VWS V14.01,2013-11-08 15:50:00,
2013-11-08 11:00:00,52.3,36.6,30.12,WNW,282,2.0,5.0,55,0.00,,---,0.00,VWS V14.01,2013-11-08 16:00:00,
2013-11-08 11:10:00,52.8,37.1,30.12,SE,130,0.0,3.0,55,0.00,,---,0.00,VWS V14.01,2013-11-08 16:10:00,
2013-11-08 11:20:00,52.9,36.7,30.12,WNW,291,1.0,7.0,54,0.00,,---,0.00,VWS V14.01,2013-11-08 16:20:00,
2013-11-08 11:30:00,52.9,35.8,30.11,WNW,282,0.0,3.0,52,0.00,,---,0.00,VWS V14.01,2013-11-08 16:30:00,
2013-11-08 11:40:00,52.8,37.1,30.11,WNW,287,1.0,3.0,55,0.00,,---,0.00,VWS V14.01,2013-11-08 16:40:00,
2013-11-08 11:50:00,52.9,36.2,30.10,West,267,0.0,6.0,53,0.00,,---,0.00,VWS V14.01,2013-11-08 16:50:00,
2013-11-08 12:00:00,53.1,36.0,30.09,WSW,251,0.0,5.0,52,0.00,,---,0.00,VWS V14.01,2013-11-08 17:00:00,
2013-11-08 12:10:00,52.9,35.3,30.09,SW,233,0.0,5.0,51,0.00,,---,0.00,VWS V14.01,2013-11-08 17:10:00,
2013-11-08 12:20:00,53.3,36.1,30.09,WNW,292,0.0,3.0,52,0.00,,---,0.00,VWS V14.01,2013-11-08 17:20:00,
2013-11-08 12:30:00,53.8,36.6,30.09,West,268,0.0,4.0,52,0.00,,---,0.00,VWS V14.01,2013-11-08 17:30:00,
2013-11-08 12:40:00,53.9,36.7,30.09,SSW,213,1.0,6.0,52,0.00,,---,0.00,VWS V14.01,2013-11-08 17:40:00,
2013-11-08 12:50:00,54.4,37.2,30.08,NW,308,0.0,2.0,52,0.00,,---,0.00,VWS V14.01,2013-11-08 17:50:00,
2013-11-08 13:00:00,54.5,37.2,30.07,NW,306,0.0,3.0,52,0.00,,---,0.00,VWS V14.01,2013-11-08 18:00:00,
2013-11-08 13:10:00,55.0,36.7,30.07,West,261,0.0,1.0,50,0.00,,---,0.00,VWS V14.01,2013-11-08 18:10:00,
2013-11-08 13:20:00,55.0,36.7,30.07,West,265,0.0,4.0,50,0.00,,---,0.00,VWS V14.01,2013-11-08 18:20:00,
2013-11-08 13:30:00,55.0,37.2,30.06,West,272,0.0,2.0,51,0.00,,---,0.00,VWS V14.01,2013-11-08 18:30:00,
2013-11-08 13:40:00,55.6,36.8,30.06,West,281,0.0,6.0,49,0.00,,---,0.00,VWS V14.01,2013-11-08 18:40:00,
2013-11-08 13:50:00,55.3,36.5,30.07,West,271,0.0,5.0,49,0.00,,---,0.00,VWS V14.01,2013-11-08 18:50:00,
2013-11-08 14:00:00,55.3,37.5,30.06,SW,215,0.0,6.0,51,0.00,,---,0.00,VWS V14.01,2013-11-08 19:00:00,
2013-11-08 14:10:00,55.6,37.3,30.06,NW,305,0.0,5.0,50,0.00,,---,0.00,VWS V14.01,2013-11-08 19:10:00,
2013-11-08 14:20:00,55.3,36.5,30.07,West,272,0.0,3.0,49,0.00,,---,0.00,VWS V14.01,2013-11-08 19:20:00,
2013-11-08 14:30:00,54.8,36.0,30.07,West,274,0.0,6.0,49,0.00,,---,0.00,VWS V14.01,2013-11-08 19:30:00,
2013-11-08 14:40:00,54.8,36.0,30.07,NNW,328,0.0,5.0,49,0.00,,---,0.00,VWS V14.01,2013-11-08 19:40:00,
2013-11-08 14:50:00,54.8,35.0,30.06,NNW,330,0.0,7.0,47,0.00,,---,0.00,VWS V14.01,2013-11-08 19:50:00,
2013-11-08 15:00:00,54.7,34.9,30.06,WNW,299,0.0,7.0,47,0.00,,---,0.00,VWS V14.01,2013-11-08 20:00:00,
2013-11-08 15:10:00,54.5,34.2,30.06,SE,140,0.0,5.0,46,0.00,,---,0.00,VWS V14.01,2013-11-08 20:10:00,
2013-11-08 15:20:00,54.4,35.1,30.07,West,277,0.0,8.0,48,0.00,,---,0.00,VWS V14.01,2013-11-08 20:20:00,
2013-11-08 15:30:00,54.2,34.4,30.07,WSW,257,0.0,8.0,47,0.00,,---,0.00,VWS V14.01,2013-11-08 20:30:00,
2013-11-08 15:40:00,53.9,35.2,30.07,West,281,2.0,8.0,49,0.00,,---,0.00,VWS V14.01,2013-11-08 20:40:00,
2013-11-08 15:50:00,53.8,36.6,30.08,South,182,0.0,2.0,52,0.00,,---,0.00,VWS V14.01,2013-11-08 20:50:00,
2013-11-08 16:00:00,53.6,36.4,30.08,West,280,0.0,3.0,52,0.00,,---,0.00,VWS V14.01,2013-11-08 21:00:00,
2013-11-08 16:10:00,53.5,35.3,30.08,West,263,0.0,7.0,50,0.00,,---,0.00,VWS V14.01,2013-11-08 21:10:00,
2013-11-08 16:20:00,53.2,35.6,30.08,WSW,246,1.0,2.0,51,0.00,,---,0.00,VWS V14.01,2013-11-08 21:20:00,
2013-11-08 16:30:00,52.9,37.2,30.08,WSW,250,0.0,1.0,55,0.00,,---,0.00,VWS V14.01,2013-11-08 21:30:00,
2013-11-08 16:40:00,52.5,36.3,30.08,SW,216,0.0,0.0,54,0.00,,---,0.00,VWS V14.01,2013-11-08 21:40:00,
2013-11-08 16:50:00,52.2,35.1,30.09,WNW,292,0.0,8.0,52,0.00,,---,0.00,VWS V14.01,2013-11-08 21:50:00,
2013-11-08 17:00:00,51.9,35.8,30.10,NW,316,0.0,0.0,54,0.00,,---,0.00,VWS V14.01,2013-11-08 22:00:00,
2013-11-08 17:10:00,51.3,36.6,30.10,West,275,0.0,0.0,57,0.00,,---,0.00,VWS V14.01,2013-11-08 22:10:00,
2013-11-08 17:20:00,50.7,37.3,30.10,West,275,0.0,0.0,60,0.00,,---,0.00,VWS V14.01,2013-11-08 22:20:00,
2013-11-08 17:30:00,49.9,36.2,30.11,West,275,0.0,0.0,59,0.00,,---,0.00,VWS V14.01,2013-11-08 22:30:00,
2013-11-08 17:40:00,49.2,37.2,30.11,West,275,0.0,0.0,63,0.00,,---,0.00,VWS V14.01,2013-11-08 22:40:00,
2013-11-08 17:50:00,48.5,37.7,30.11,West,275,0.0,0.0,66,0.00,,---,0.00,VWS V14.01,2013-11-08 22:50:00,
2013-11-08 18:00:00,47.7,35.7,30.11,West,275,0.0,0.0,63,0.00,,---,0.00,VWS V14.01,2013-11-08 23:00:00,
2013-11-08 18:10:00,47.3,37.3,30.11,West,275,0.0,0.0,68,0.00,,---,0.00,VWS V14.01,2013-11-08 23:10:00,
2013-11-08 18:20:00,46.7,36.7,30.12,West,275,0.0,0.0,68,0.00,,---,0.00,VWS V14.01,2013-11-08 23:20:00,
2013-11-08 18:30:00,46.2,37.0,30.13,West,275,0.0,0.0,70,0.00,,---,0.00,VWS V14.01,2013-11-08 23:30:00,
2013-11-08 18:40:00,45.8,36.2,30.13,West,275,0.0,0.0,69,0.00,,---,0.00,VWS V14.01,2013-11-08 23:40:00,
2013-11-08 18:50:00,45.5,36.7,30.13,West,275,0.0,0.0,71,0.00,,---,0.00,VWS V14.01,2013-11-08 23:50:00,
2013-11-08 19:00:00,45.4,38.0,30.13,West,275,0.0,0.0,75,0.00,,---,0.00,VWS V14.01,2013-11-09 00:00:00,
2013-11-08 19:10:00,44.8,36.3,30.13,West,275,0.0,0.0,72,0.00,,---,0.00,VWS V14.01,2013-11-09 00:10:00,
2013-11-08 19:20:00,44.3,36.2,30.13,West,275,0.0,0.0,73,0.00,,---,0.00,VWS V14.01,2013-11-09 00:20:00,
2013-11-08 19:30:00,43.8,37.1,30.14,West,275,0.0,0.0,77,0.00,,---,0.00,VWS V14.01,2013-11-09 00:30:00,
2013-11-08 19:40:00,43.5,36.5,30.14,West,275,0.0,0.0,76,0.00,,---,0.00,VWS V14.01,2013-11-09 00:40:00,
2013-11-08 19:50:00,43.1,36.7,30.14,West,275,0.0,0.0,78,0.00,,---,0.00,VWS V14.01,2013-11-09 00:50:00,
2013-11-08 20:00:00,42.8,38.0,30.14,West,275,0.0,0.0,83,0.00,,---,0.00,VWS V14.01,2013-11-09 01:00:00,
2013-11-08 20:10:00,42.2,37.7,30.14,West,275,0.0,0.0,84,0.00,,---,0.00,VWS V14.01,2013-11-09 01:10:00,
2013-11-08 20:20:00,41.9,36.2,30.15,West,275,0.0,0.0,80,0.00,,---,0.00,VWS V14.01,2013-11-09 01:20:00,
2013-11-08 20:30:00,41.8,37.3,30.15,West,275,0.0,0.0,84,0.00,,---,0.00,VWS V14.01,2013-11-09 01:30:00,
2013-11-08 20:40:00,41.6,37.1,30.15,West,275,0.0,0.0,84,0.00,,---,0.00,VWS V14.01,2013-11-09 01:40:00,
2013-11-08 20:50:00,41.5,37.6,30.16,West,275,0.0,0.0,86,0.00,,---,0.00,VWS V14.01,2013-11-09 01:50:00,
2013-11-08 21:00:00,41.3,37.7,30.16,West,275,0.0,0.0,87,0.00,,---,0.00,VWS V14.01,2013-11-09 02:00:00,
2013-11-08 21:10:00,41.2,37.9,30.16,West,275,0.0,0.0,88,0.00,,---,0.00,VWS V14.01,2013-11-09 02:10:00,
2013-11-08 21:20:00,41.1,37.8,30.16,West,275,0.0,0.0,88,0.00,,---,0.00,VWS V14.01,2013-11-09 02:20:00,
2013-11-08 21:30:00,40.8,36.0,30.16,West,275,0.0,0.0,83,0.00,,---,0.00,VWS V14.01,2013-11-09 02:30:00,
2013-11-08 21:40:00,40.5,36.0,30.16,West,275,0.0,0.0,84,0.00,,---,0.00,VWS V14.01,2013-11-09 02:40:00,
2013-11-08 21:50:00,40.3,36.8,30.16,West,275,0.0,0.0,87,0.00,,---,0.00,VWS V14.01,2013-11-09 02:50:00,
2013-11-08 22:00:00,40.1,36.5,30.17,West,275,0.0,0.0,87,0.00,,---,0.00,VWS V14.01,2013-11-09 03:00:00,
2013-11-08 22:10:00,39.6,36.6,30.17,West,275,0.0,0.0,89,0.00,,---,0.00,VWS V14.01,2013-11-09 03:10:00,
2013-11-08 22:20:00,39.3,36.9,30.17,West,275,0.0,0.0,91,0.00,,---,0.00,VWS V14.01,2013-11-09 03:20:00,
2013-11-08 22:30:00,39.2,36.8,30.17,West,275,0.0,0.0,91,0.00,,---,0.00,VWS V14.01,2013-11-09 03:30:00,
2013-11-08 22:40:00,39.1,37.0,30.17,West,275,0.0,0.0,92,0.00,,---,0.00,VWS V14.01,2013-11-09 03:40:00,
2013-11-08 22:50:00,38.6,36.5,30.17,West,275,0.0,0.0,92,0.00,,---,0.00,VWS V14.01,2013-11-09 03:50:00,
2013-11-08 23:00:00,38.3,36.7,30.17,West,275,0.0,0.0,94,0.00,,---,0.00,VWS V14.01,2013-11-09 04:00:00,
2013-11-08 23:10:00,37.9,36.9,30.17,West,275,0.0,0.0,96,0.00,,---,0.00,VWS V14.01,2013-11-09 04:10:00,
2013-11-08 23:20:00,37.6,36.6,30.17,West,275,0.0,0.0,96,0.00,,---,0.00,VWS V14.01,2013-11-09 04:20:00,
2013-11-08 23:30:00,37.3,36.5,30.17,West,275,0.0,0.0,97,0.00,,---,0.00,VWS V14.01,2013-11-09 04:30:00,
2013-11-08 23:40:00,37.2,36.4,30.17,West,275,0.0,0.0,97,0.00,,---,0.00,VWS V14.01,2013-11-09 04:40:00,
2013-11-08 23:50:00,37.0,36.5,30.17,West,275,0.0,0.0,98,0.00,,---,0.00,VWS V14.01,2013-11-09 04:50:00,